Sussex, NJ

5:54 AM EDT on August 30, 2016 (GMT -0400)
Sussex

Weather History for KFWN - January, 2013

Change the Weather History Date:

Friday, January 25, 2013

  Actual Average Record
Temperature  
Mean Temperature 15 °F -  
Max Temperature 21 °F 37 °F 62 °F (1967)
Min Temperature 9 °F 13 °F -14 °F (1987)
Degree Days  
Heating Degree Days 50    
Moisture  
Dew Point 5 °F    
Average Humidity 65    
Maximum Humidity 86    
Minimum Humidity 42    
Precipitation  
Precipitation 0.00 in - - ()
Sea Level Pressure  
Sea Level Pressure 30.22 in    
Wind  
Wind Speed 3 mph (SW)    
Max Wind Speed 7 mph    
Max Gust Speed -    
Visibility 7 miles    
Events Snow    
Averages and records for this station are not official NWS values.
T = Trace of Precipitation, MM = Missing Value Source: NWS Daily Summary

Daily Weather History Graph

Daily Weather History Graph

Search for Another Location

Airport or City:

Trip Planner

Search our weather history database for the weather conditions in past years. The results will help you decide how hot, cold, wet, or windy it might be!

Date:

Astronomy

Jan. 25, 2013 Rise Set
Actual Time 7:15 AM EST 5:06 PM EST
Civil Twilight 6:45 AM EST 5:36 PM EST
Nautical Twilight 6:12 AM EST 6:09 PM EST
Astronomical Twilight 5:39 AM EST 6:42 PM EST
Moon 4:01 PM EST (1/25) 5:53 AM EST (1/25)
Length of Visible Light 10h 50m
Length of Day
9h 51m
Waxing Gibbous, 98% of the Moon is Illuminated
Jan 25
Waxing Gibbous
Jan 26
Full
Feb 3
Last Quarter
Feb 10
New
Feb 17
First Quarter

Hourly Weather History & Observations

Time (EST) Temp. Windchill Dew Point Humidity Pressure Visibility Wind Dir Wind Speed Gust Speed Precip Events Conditions
12:53 AM 10.9 °F 0.2 °F -2.0 °F 56% 30.40 in 10.0 mi WSW 6.9 mph - N/A   Clear
1:53 AM 10.9 °F 1.4 °F -0.9 °F 59% 30.40 in 10.0 mi West 5.8 mph - N/A   Clear
2:53 AM 10.9 °F - -0.9 °F 59% 30.39 in 10.0 mi Calm Calm - N/A   Clear
3:53 AM 10.9 °F - -0.9 °F 59% 30.38 in 10.0 mi Calm Calm - N/A   Clear
4:53 AM 9.0 °F - -0.0 °F 67% 30.40 in 10.0 mi Calm Calm - N/A   Clear
5:53 AM 10.9 °F 2.9 °F 1.0 °F 64% 30.40 in 10.0 mi SW 4.6 mph - N/A   Clear
6:53 AM 12.0 °F - 1.0 °F 61% 30.40 in 10.0 mi Calm Calm - N/A   Clear
7:53 AM 12.0 °F 2.7 °F 1.0 °F 61% 30.39 in 10.0 mi NW 5.8 mph - N/A   Clear
8:53 AM 12.9 °F 5.2 °F 1.9 °F 62% 30.39 in 10.0 mi SW 4.6 mph - N/A   Clear
9:53 AM 15.1 °F 7.7 °F 1.9 °F 56% 30.38 in 10.0 mi Variable 4.6 mph - N/A   Clear
10:53 AM 17.1 °F - 1.9 °F 52% 30.36 in 10.0 mi Calm Calm - N/A   Clear
11:53 AM 18.0 °F - 1.0 °F 48% 30.30 in 10.0 mi Calm Calm - N/A   Clear
12:53 PM 19.9 °F 14.9 °F 1.9 °F 46% 30.26 in 10.0 mi ESE 3.5 mph - N/A   Clear
1:53 PM 19.9 °F - 1.0 °F 44% 30.22 in 10.0 mi Calm Calm - N/A   Mostly Cloudy
2:53 PM 21.0 °F 14.6 °F 1.0 °F 42% 30.19 in 10.0 mi Variable 4.6 mph - N/A   Mostly Cloudy
3:53 PM 21.9 °F 17.2 °F 1.9 °F 42% 30.18 in 10.0 mi SSW 3.5 mph - N/A   Overcast
4:53 PM 21.0 °F 16.2 °F 3.0 °F 46% 30.15 in 10.0 mi WSW 3.5 mph - N/A   Overcast
5:39 PM 19.4 °F 12.8 °F 10.4 °F 68% 30.11 in 3.0 mi SSW 4.6 mph - 0.00 in Snow Light Snow
5:50 PM 19.4 °F - 12.2 °F 74% 30.10 in 2.0 mi Calm Calm - 0.00 in Snow Light Snow
5:53 PM 19.0 °F 13.9 °F 12.0 °F 74% 30.12 in 2.0 mi SSW 3.5 mph - 0.00 in Snow Light Snow
6:29 PM 17.6 °F - 12.2 °F 79% 30.09 in 1.5 mi Calm Calm - 0.00 in Snow Light Snow
6:50 PM 17.6 °F 12.3 °F 14.0 °F 86% 30.10 in 1.2 mi Variable 3.5 mph - 0.00 in Snow Light Snow
6:53 PM 18.0 °F 12.7 °F 14.0 °F 84% 30.12 in 1.2 mi Variable 3.5 mph - 0.00 in Snow Light Snow
7:01 PM 17.6 °F 10.7 °F 12.2 °F 79% 30.10 in 2.0 mi Variable 4.6 mph - 0.00 in Snow Light Snow
7:46 PM 17.6 °F 12.3 °F 12.2 °F 79% 30.08 in 2.5 mi WSW 3.5 mph - 0.00 in Snow Light Snow
7:53 PM 18.0 °F 11.1 °F 12.0 °F 78% 30.10 in 3.0 mi WSW 4.6 mph - 0.00 in Snow Light Snow
8:46 PM 15.8 °F - 10.4 °F 79% 30.06 in 8.0 mi Calm Calm - 0.00 in   Mostly Cloudy
8:53 PM 16.0 °F - 10.9 °F 81% 30.08 in 10.0 mi Calm Calm - 0.00 in   Scattered Clouds
9:53 PM 12.9 °F - 8.1 °F 81% 30.07 in 5.0 mi Calm Calm - N/A   Haze
10:53 PM 10.0 °F - 6.1 °F 84% 30.06 in 9.0 mi Calm Calm - N/A   Clear
11:53 PM 9.0 °F - 3.9 °F 80% 30.06 in 8.0 mi Calm Calm - N/A   Clear